View from above orbital plane
|
View from above satellite
|
Ground track
|
The orbit data is extracted from the following two-line orbital elements,
1 00046U 60007B 21022.76996462 -.00000005 00000-0 22134-4 0 9991
2 00046 66.6895 173.9199 0214417 326.1006 32.6547 14.49360165170899
Epoch (UTC): | 22 January 2021 18:28:44 |
Eccentricity: | 0.0214417 |
inclination: | 66.6895° |
perigee height: | 575 km |
apogee height: | 880 km |
right ascension of ascending node: | 173.9199° |
argument of perigee: | 326.1006° |
revolutions per day: | 14.49360165 |
mean anomaly at epoch: | 32.6547° |
orbit number at epoch: | 17089 |
The dashed part of the orbit path shows where the satellite is in the earth's shadow,
|
|